RH
10 12 13 14 14 11 13 13 11 11 12 14 16 17 20 18 19 18 14 7 6 13 41 97 42 45 34 25 23 20 20 17 17 14 13 9 9 9 8 8 6 5 6 13 14 9 7
16 14 14 15 16 15 17 15 11 10 13 13 12 11 13 16 18 18 17 13 7 6 17 40 91 42 46 26 23 21 20 19 18 16 14 12 9 9 8 7 6 7 6 12 12 8 9
34 25 17 16 18 21 23 18 12 12 10 10 9 7 6 6 9 17 16 15 11 6 5 10 35 95 52 37 21 24 20 19 18 17 16 13 10 9 8 7 6 6 10 13 10 11 11
43 31 22 19 20 26 26 15 14 14 14 10 5 4 3 3 3 6 15 15 11 8 6 5 7 40 68 51 24 22 21 18 17 16 17 18 11 9 8 7 9 13 12 14 12 12 11
47 29 28 26 27 31 18 15 16 14 5 3 4 7 9 7 4 3 5 14 12 9 7 5 5 18 37 64 36 23 20 19 18 25 18 30 13 10 9 10 11 14 14 15 13 12 12
47 35 38 36 34 24 17 15 14 5 5 12 21 19 12 5 3 3 2 5 9 10 8 15 11 8 32 40 59 28 21 19 20 22 67 49 16 12 10 12 14 23 18 15 14 12 14
50 49 48 40 33 20 15 13 6 11 25 25 13 7 7 10 5 3 2 3 5 10 9 11 11 7 30 40 34 29 23 20 21 20 20 34 19 15 38 25 34 21 19 18 20 17 13
40 57 50 43 25 18 14 9 11 26 30 11 16 94 68 95 82 16 3 3 3 9 10 15 43 14 29 44 35 28 23 21 20 22 22 23 24 42 34 33 37 30 26 27 31 28 17
40 58 46 39 26 17 14 8 17 22 11 7 56 100 89 97 100 64 5 4 5 35 24 83 100 25 39 46 35 31 25 22 23 26 24 30 38 38 36 35 33 34 29 31 24 24 22
42 50 47 34 25 17 10 12 16 9 8 7 94 99 100 91 93 100 12 4 98 100 100 100 89 28 48 49 35 36 24 22 23 28 33 29 31 38 34 35 36 30 24 19 14 12 11
43 42 50 33 24 15 9 13 11 14 10 14 100 100 94 85 83 81 8 64 100 100 100 92 64 79 54 62 48 30 24 20 23 32 36 38 41 40 37 27 19 16 13 14 15 17 16
42 43 49 34 21 12 11 14 26 36 18 37 87 91 96 100 93 65 20 100 100 100 100 95 85 74 57 58 43 30 22 20 24 23 22 24 22 22 21 19 17 18 19 18 17 17 16
35 48 45 34 18 9 12 27 54 76 76 65 73 79 68 72 78 77 66 100 100 98 100 74 64 81 56 66 32 27 22 19 21 22 23 21 23 22 21 21 20 18 18 22 26 20 14
35 48 42 30 15 8 14 38 47 82 82 90 100 82 72 72 98 57 99 100 100 100 100 100 96 66 63 75 34 28 24 21 21 22 22 20 20 21 22 20 18 22 28 35 24 16 14
38 44 41 25 14 8 20 48 51 68 76 89 75 87 100 84 91 77 98 100 100 100 100 96 98 88 72 87 36 24 25 26 23 23 23 24 21 21 20 20 27 32 32 27 23 21 16
44 43 41 23 14 8 32 45 41 71 84 73 92 79 97 91 70 81 99 100 99 100 96 100 95 80 76 76 40 23 24 24 25 26 24 22 20 20 25 38 38 34 30 26 24 19 15
49 44 40 23 13 8 34 51 53 63 55 67 40 74 100 69 45 93 100 100 100 100 100 95 95 92 72 80 46 24 24 24 24 21 20 22 26 35 42 39 32 30 31 28 17 19 36
48 49 39 24 16 9 29 71 72 90 33 99 41 60 63 92 94 96 100 100 100 100 98 97 95 85 72 90 55 45 34 28 28 32 41 46 46 44 35 29 25 31 33 16 24 56 55
45 50 41 26 17 9 33 51 71 89 46 93 89 46 89 98 100 100 100 100 98 98 100 95 99 62 67 71 66 51 49 48 49 50 48 46 39 32 31 29 39 32 19 42 64 66 66
41 47 45 29 18 10 26 42 54 54 63 90 55 56 93 100 100 100 100 100 100 99 97 83 90 81 47 50 58 55 53 51 50 47 38 31 31 33 39 43 26 30 70 68 67 67 75
37 42 48 33 21 14 15 32 54 29 74 78 78 89 82 75 89 98 100 100 100 96 93 80 78 92 54 51 50 52 50 43 35 32 30 30 36 42 47 24 47 60 63 74 86 89 65
33 37 46 40 25 18 9 20 38 29 44 62 62 66 78 72 75 89 99 100 100 93 81 81 75 90 65 52 51 50 44 40 39 35 33 34 55 35 35 74 76 82 74 86 75 72 69
32 36 40 45 29 21 11 15 28 31 40 39 36 59 99 82 71 74 68 57 66 66 63 58 59 68 89 89 73 55 50 49 36 34 40 54 31 64 96 82 74 80 84 79 76 75 77
35 38 40 49 37 24 19 8 18 29 34 61 76 69 75 58 59 56 47 49 51 50 42 38 41 52 62 77 79 68 68 40 33 54 45 38 85 97 92 83 90 85 90 78 74 82 94
38 40 38 44 43 28 22 16 7 20 23 31 56 61 63 65 56 52 46 40 34 28 32 39 38 43 49 52 53 52 39 33 45 49 42 92 99 92 97 99 100 100 100 81 80 86 88
40 40 35 42 45 36 25 21 7 10 21 28 36 38 44 47 40 38 31 28 28 27 31 39 35 39 42 42 39 35 35 45 64 43 79 100 89 95 99 100 100 100 99 96 89 90 82
45 41 34 39 45 40 27 23 20 5 15 24 39 34 30 52 46 35 36 40 43 42 48 41 37 45 42 38 39 37 37 55 62 47 94 93 83 92 97 87 75 86 73 69 77 92 98
52 45 39 42 47 44 30 22 22 14 5 20 24 34 38 37 44 48 53 55 65 61 62 71 56 58 63 54 45 40 40 55 56 51 94 84 71 81 78 65 59 53 56 58 60 64 78
56 57 43 48 47 44 35 22 22 20 5 10 28 28 34 45 50 59 62 60 68 77 98 98 94 98 100 80 59 48 50 54 56 50 83 74 63 73 61 59 54 63 68 62 63 72 78
Wind_Speed
53 52 50 52 54 54 58 57 56 51 48 44 41 45 49 48 48 46 43 41 41 39 37 40 38 40 39 38 40 38 41 45 46 47 47 47 47 47 46 45 43 42 45 43 39 38 34
54 52 52 52 54 56 59 62 61 60 50 47 47 47 47 51 52 53 50 46 43 41 41 39 42 38 39 38 39 37 38 42 44 46 47 47 46 46 47 46 44 43 45 44 42 36 34
57 56 55 55 59 62 66 69 70 69 65 60 56 54 57 57 58 57 56 52 48 45 42 41 40 41 38 38 39 37 38 39 41 43 44 46 46 46 47 45 45 44 41 43 44 36 38
59 59 59 61 64 69 71 74 76 74 70 74 75 75 73 71 64 63 61 58 53 49 46 43 41 42 40 38 37 37 36 37 38 38 39 44 45 45 46 45 45 43 45 43 42 40 40
64 61 62 66 70 73 76 81 82 81 82 74 67 63 61 62 62 58 65 63 57 53 48 44 43 40 41 39 36 36 36 35 36 35 37 39 43 44 45 43 43 43 43 42 43 42 41
66 63 66 69 73 76 82 87 87 87 72 55 52 49 45 42 39 42 56 64 60 54 49 43 45 42 37 39 39 36 35 34 32 33 29 36 40 41 42 40 37 39 42 43 41 44 42
67 66 69 71 75 81 87 91 93 74 58 50 40 36 29 24 23 30 43 57 59 53 51 50 43 39 36 38 39 38 35 33 31 32 34 34 34 35 32 36 36 41 41 40 39 40 42
67 67 70 74 79 85 93 96 82 63 51 38 26 7 10 10 10 24 40 50 55 54 53 46 39 40 38 38 36 35 34 32 30 29 32 32 31 28 33 35 34 36 36 35 35 38 43
65 68 71 77 83 90 97 94 75 60 42 28 13 6 3 4 7 14 36 47 52 47 50 48 43 38 37 39 37 34 33 31 29 27 27 28 28 29 30 31 31 33 35 33 34 35 36
65 69 75 79 86 93 98 88 69 49 37 21 13 5 2 7 4 8 31 48 51 46 51 46 45 40 39 41 36 35 34 32 28 26 26 27 27 27 27 26 27 29 30 28 26 28 30
65 70 76 81 88 95 97 81 55 40 30 9 13 2 5 6 8 10 31 63 42 45 46 45 42 39 38 41 36 34 33 29 27 23 22 21 22 24 23 23 24 23 23 23 25 28 29
65 71 76 81 89 96 92 69 50 40 28 7 12 11 5 8 7 11 34 65 42 49 42 46 45 41 39 39 36 34 31 28 24 23 20 21 19 19 19 20 21 20 22 25 28 32 35
65 70 75 81 89 93 87 59 41 32 27 22 14 15 18 13 8 19 46 46 46 37 31 48 43 36 37 35 33 34 29 27 25 21 19 18 18 20 19 19 20 22 24 29 33 35 37
64 69 73 80 86 90 76 54 42 34 32 29 18 10 9 5 16 29 49 47 39 22 22 42 35 33 34 36 33 33 31 29 25 22 20 19 20 19 19 20 21 24 27 29 35 39 42
63 66 70 78 84 86 67 55 44 37 32 23 16 9 8 16 22 33 36 38 22 21 23 28 32 30 34 36 32 33 30 27 25 22 21 21 20 20 20 22 25 25 28 32 36 38 44
61 64 68 75 80 81 59 51 43 36 35 20 14 9 8 18 23 43 38 20 17 27 30 19 20 29 31 34 27 30 29 26 24 23 22 20 21 22 22 23 26 30 29 31 34 40 43
57 61 65 71 76 76 56 48 43 41 34 28 12 9 12 24 35 37 22 13 21 29 26 23 22 22 23 29 25 25 27 25 25 24 23 21 23 20 21 24 26 28 30 32 37 39 45
54 57 62 67 72 71 53 51 42 46 29 29 23 16 38 60 47 32 22 25 32 31 29 17 23 26 28 30 27 26 25 25 24 23 22 23 22 21 23 24 28 29 27 32 38 38 44
51 54 58 63 67 65 48 49 46 39 27 29 24 28 52 43 29 20 23 24 30 25 21 20 24 25 26 28 29 27 24 23 22 22 21 20 20 20 22 27 26 25 29 33 35 38 37
49 51 54 58 62 62 43 45 48 31 23 24 23 29 39 32 26 26 26 27 23 19 15 20 21 26 23 25 27 27 25 23 22 20 19 20 19 22 25 25 21 23 24 28 33 33 34
44 47 49 54 57 57 43 36 43 21 23 26 35 29 23 23 25 23 24 22 13 15 16 18 22 25 20 21 22 21 20 18 17 17 17 18 19 21 22 21 22 18 19 22 27 28 31
40 43 45 49 52 53 45 27 33 16 15 28 25 16 14 16 23 22 21 14 10 10 8 12 21 24 24 20 17 17 16 14 13 14 16 17 17 17 19 18 13 14 15 18 15 20 26
38 40 42 44 46 48 45 25 24 19 17 20 12 10 14 16 22 24 16 13 11 6 5 7 14 21 22 22 17 13 12 12 11 15 15 14 14 13 13 11 10 9 12 13 15 22 29
34 37 40 41 43 44 41 32 16 18 17 12 17 15 16 15 15 12 9 8 7 7 7 8 10 17 20 19 19 15 13 13 13 14 12 10 10 9 10 8 6 8 6 10 14 20 25
34 35 37 38 40 41 39 34 18 6 8 26 8 12 14 16 10 6 5 6 8 8 8 8 10 16 20 18 16 15 16 15 14 10 10 10 11 7 7 4 2 4 6 9 14 17 20
34 33 33 36 37 38 39 34 32 3 9 17 19 12 10 11 8 5 7 11 12 11 9 9 11 15 16 16 17 16 15 13 12 11 11 10 8 7 9 5 5 5 7 10 12 12 17
32 30 31 35 38 37 36 36 30 24 16 19 20 29 23 14 11 8 11 11 14 12 11 13 15 17 16 18 17 17 16 14 11 13 14 10 7 7 10 7 5 3 6 8 9 8 11
32 29 31 35 39 39 38 38 34 28 15 25 25 19 19 20 17 13 10 10 11 14 16 16 17 17 18 18 18 18 18 14 12 14 14 12 9 9 8 5 4 4 4 6 8 11 13
31 31 31 35 39 40 40 40 39 34 28 26 30 28 21 21 25 18 14 10 13 15 16 15 15 15 15 16 18 18 18 16 14 16 17 15 12 11 9 7 6 3 5 7 8 9 12
Wind_Direction
332 334 339 339 339 337 336 334 331 323 312 303 292 282 277 270 267 261 256 252 251 245 242 235 235 234 233 232 232 226 227 229 230 231 231 232 232 232 233 236 239 239 239 241 240 243 249
331 331 331 332 334 332 332 331 329 324 311 300 290 283 276 271 263 259 255 250 246 246 238 238 234 235 233 232 230 229 225 228 229 231 230 231 231 233 232 233 236 238 237 241 242 244 245
331 329 329 330 329 331 331 328 327 323 318 310 298 286 280 268 263 255 250 246 243 240 240 237 238 235 232 234 230 229 227 227 229 230 230 230 230 231 232 233 236 238 236 241 244 240 243
332 328 330 329 330 331 330 328 325 321 316 314 306 296 285 272 257 248 245 241 238 236 236 236 234 234 232 232 229 227 227 225 226 227 231 231 229 231 232 232 235 236 237 239 243 241 240
333 331 332 331 331 332 331 328 325 323 318 307 296 289 282 276 270 246 235 235 232 232 231 232 231 231 227 229 227 227 227 225 225 226 228 231 228 231 232 233 235 235 237 239 241 240 238
334 332 332 333 333 332 332 330 328 324 317 308 302 297 287 276 268 251 227 226 226 226 227 227 229 226 224 223 225 227 226 224 225 224 222 226 230 230 234 234 238 239 236 237 238 241 237
335 333 334 334 334 335 334 333 330 328 321 317 306 295 291 281 258 237 220 213 216 213 222 224 224 224 223 221 220 222 222 223 223 225 226 232 233 230 233 233 235 238 240 241 244 243 243
335 334 335 335 337 338 337 334 334 327 326 319 303 287 310 351 311 232 213 202 203 204 209 217 219 218 216 216 216 217 219 219 221 223 226 229 234 231 231 233 237 243 244 243 243 245 244
335 334 337 338 340 340 339 336 335 330 327 318 262 220 261 261 278 252 205 189 183 189 195 202 212 214 212 212 211 211 215 216 218 220 224 224 225 229 232 236 239 241 244 244 245 247 249
336 337 339 341 341 342 340 341 337 334 330 314 220 206 337 261 287 257 201 176 163 187 194 200 206 208 207 209 207 209 211 211 213 217 217 220 222 226 229 233 236 238 241 243 245 246 249
339 338 341 342 343 344 342 345 347 345 342 301 167 225 357 316 250 251 182 167 156 174 185 199 206 206 206 205 204 205 209 209 212 209 211 214 215 216 217 219 227 231 241 246 254 260 260
341 339 342 344 347 346 345 351 360 8 6 180 218 228 26 334 252 183 177 169 151 169 181 193 201 203 205 207 202 203 207 205 204 204 202 202 200 206 211 219 229 238 249 259 264 268 269
342 340 344 346 350 348 348 359 3 7 12 11 263 256 282 304 201 166 174 158 154 148 182 195 201 201 203 201 201 201 202 204 204 204 200 201 201 210 217 230 242 250 259 266 269 271 273
342 342 346 348 352 351 352 1 2 355 7 351 332 298 281 203 158 168 162 143 152 134 147 183 187 195 200 198 200 202 201 202 200 203 202 208 210 217 233 240 247 257 264 274 276 277 278
343 344 349 352 355 354 354 1 356 350 345 356 15 21 67 146 158 177 159 143 150 129 156 169 178 192 194 196 200 201 199 203 205 207 214 219 225 232 239 249 257 263 270 273 281 285 284
342 347 351 355 357 357 356 2 4 3 358 353 347 12 111 147 155 157 144 96 131 154 167 157 180 190 193 192 196 200 201 203 206 210 220 221 232 238 244 255 264 269 275 280 280 283 286
344 349 352 357 359 360 358 1 0 359 1 15 44 71 120 129 149 136 139 132 150 162 159 162 161 177 187 191 193 195 200 204 210 214 222 227 237 242 257 262 268 275 276 279 284 294 295
346 349 353 359 2 3 359 3 2 10 30 41 58 89 125 126 130 103 118 150 153 159 170 154 166 164 172 187 194 195 197 200 207 213 223 233 245 258 262 268 269 270 279 283 290 296 293
348 349 353 359 3 6 1 6 6 5 46 56 59 117 133 128 125 111 110 137 149 156 172 162 164 160 172 183 192 195 198 204 211 219 231 245 255 258 263 262 272 280 283 288 293 292 305
348 348 353 360 6 8 3 8 12 21 66 67 82 135 124 109 114 111 128 132 151 167 167 165 169 175 177 179 188 200 205 211 221 231 236 241 247 253 260 272 268 277 286 294 300 310 308
346 347 353 359 6 8 10 9 16 29 72 91 116 110 115 116 112 118 131 132 137 145 166 179 181 180 182 179 184 190 196 202 209 221 233 239 245 255 261 263 279 293 297 306 317 321 323
344 347 351 358 5 7 13 13 19 41 80 122 123 133 120 124 127 133 126 135 142 142 161 189 197 197 191 188 187 191 194 202 214 232 244 248 256 250 255 275 286 297 309 326 335 344 338
342 346 348 356 2 6 12 10 20 29 132 143 140 132 115 128 137 143 141 140 156 177 198 207 210 211 211 210 211 202 204 217 231 245 249 250 239 250 264 271 282 282 315 2 358 353 353
335 342 344 351 357 3 8 14 11 26 174 114 147 123 130 140 147 156 153 171 187 213 231 237 219 214 213 214 214 217 224 234 240 247 248 237 245 235 261 268 257 305 324 19 6 1 4
330 338 340 346 351 357 2 10 17 15 202 206 154 165 166 172 164 178 203 214 222 236 249 239 218 210 215 216 210 217 227 234 239 243 230 226 223 221 198 214 281 347 18 35 23 11 8
325 334 336 340 346 351 355 357 8 295 228 243 227 194 199 195 207 242 263 268 264 250 237 227 208 199 203 207 206 213 227 237 249 235 234 218 218 227 199 203 259 325 11 34 25 20 17
319 331 332 336 337 344 348 350 351 356 239 239 230 232 237 223 224 249 261 280 252 227 208 201 198 192 194 203 208 217 225 235 240 230 227 213 227 230 196 216 259 298 348 353 348 352 359
313 324 329 333 333 335 339 342 343 343 315 236 234 235 231 228 231 241 258 245 231 206 199 198 196 197 202 208 215 221 230 234 239 228 220 221 224 228 210 231 257 269 318 348 342 330 331
308 317 325 329 330 330 332 333 335 332 327 244 235 229 230 224 228 238 235 223 218 219 219 204 201 202 207 211 216 222 230 237 240 228 229 227 224 221 241 233 241 272 325 337 334 331 331